| time (UTC) | temp F | wind direction | speed MPH | gust MPH | rain 1hr in | rain 24hr in | rain mn in | humidity % | barometer mb |
| 20260905222600 | 70 | 284 | 6.0 | 7.0 | 0.00 | 0.00 | 0.00 | 78 | 1011.8 |
| 20260905222056 | 71 | 190 | 1.0 | 1.0 | 0.00 | 0.00 | 0.00 | 79 | 1011.5 |
| 20260905221552 | 71 | 223 | 2.0 | 2.0 | 0.00 | 0.00 | 0.00 | 75 | 1011.7 |
| 20260905221048 | 72 | 172 | 2.0 | 3.0 | 0.00 | 0.00 | 0.00 | 76 | 1011.7 |
| 20260905220543 | 71 | 7 | 3.0 | 4.0 | 0.00 | 0.00 | 0.00 | 76 | 1011.4 |
| 20260905220039 | 70 | 201 | 1.0 | 2.0 | 0.00 | 0.00 | 0.00 | 77 | 1011.5 |
| 20260905215538 | 70 | 180 | 1.0 | 1.0 | 0.00 | 0.00 | 0.00 | 77 | 1011.4 |
| 20260905215035 | 71 | 315 | 1.0 | 1.0 | 0.00 | 0.00 | 0.00 | 77 | 1011.3 |
| 20260905214531 | 72 | 185 | 2.0 | 3.0 | 0.00 | 0.00 | 0.00 | 73 | 1011.3 |
| 20260905214025 | 72 | 71 | 3.0 | 4.0 | 0.00 | 0.00 | 0.00 | 75 | 1011.5 |
| 20260905213521 | 72 | 85 | 2.0 | 2.0 | 0.00 | 0.00 | 0.00 | 76 | 1011.3 |
| 20260905213016 | 71 | 85 | 0.0 | 1.0 | 0.00 | 0.00 | 0.00 | 75 | 1011.4 |
| 20260905212511 | 73 | 85 | 0.0 | 0.0 | 0.00 | 0.00 | 0.00 | 71 | 1011.2 |
| 20260905212010 | 74 | 186 | 0.0 | 0.0 | 0.00 | 0.00 | 0.00 | 69 | 1011.2 |
| 20260905211506 | 75 | 272 | 3.0 | 3.0 | 0.00 | 0.00 | 0.00 | 69 | 1011.0 |
| 20260905211002 | 74 | 263 | 2.0 | 3.0 | 0.00 | 0.00 | 0.00 | 71 | 1011.1 |
| 20260905210457 | 73 | 280 | 2.0 | 3.0 | 0.00 | 0.00 | 0.00 | 72 | 1011.3 |
| 20260905205956 | 72 | 294 | 2.0 | 3.0 | 0.00 | 0.00 | 0.00 | 73 | 1011.0 |
| 20260905205451 | 71 | 226 | 1.0 | 2.0 | 0.00 | 0.00 | 0.00 | 77 | 1011.1 |
| 20260905204949 | 70 | 188 | 0.0 | 1.0 | 0.00 | 0.00 | 0.00 | 79 | 1011.1 |
| 20260905204446 | 69 | 187 | 0.0 | 0.0 | 0.00 | 0.00 | 0.00 | 85 | 1011.2 |
| 20260905203945 | 69 | 187 | 0.0 | 0.0 | 0.00 | 0.00 | 0.00 | 83 | 1011.1 |
| 20260905203440 | 69 | 184 | 1.0 | 1.0 | 0.00 | 0.00 | 0.00 | 81 | 1011.2 |
| 20260905202936 | 70 | 184 | 0.0 | 1.0 | 0.00 | 0.00 | 0.00 | 80 | 1011.2 |
| 20260905202431 | 70 | 181 | 0.0 | 0.0 | 0.00 | 0.00 | 0.00 | 79 | 1011.2 |
| 20260905201926 | 70 | 185 | 1.0 | 1.0 | 0.00 | 0.00 | 0.00 | 81 | 1011.2 |
| 20260905201421 | 70 | 257 | 2.0 | 2.0 | 0.00 | 0.00 | 0.00 | 77 | 1011.2 |
| 20260905200921 | 70 | 203 | 2.0 | 2.0 | 0.00 | 0.00 | 0.00 | 78 | 1010.9 |
| 20260905200417 | 70 | 205 | 2.0 | 4.0 | 0.00 | 0.00 | 0.00 | 78 | 1011.0 |
| 20260905195915 | 71 | 167 | 1.0 | 1.0 | 0.00 | 0.00 | 0.00 | 76 | 1011.1 |
| 20260905195411 | 71 | 312 | 0.0 | 0.0 | 0.00 | 0.00 | 0.00 | 73 | 1011.1 |
| 20260905194906 | 73 | 205 | 0.0 | 1.0 | 0.00 | 0.00 | 0.00 | 74 | 1011.2 |
| 20260905194405 | 73 | 182 | 0.0 | 1.0 | 0.00 | 0.00 | 0.00 | 69 | 1011.0 |
| 20260905193900 | 72 | 113 | 0.0 | 0.0 | 0.00 | 0.00 | 0.00 | 70 | 1010.9 |
| 20260905193355 | 73 | 113 | 1.0 | 1.0 | 0.00 | 0.00 | 0.00 | 67 | 1010.9 |
| 20260905192850 | 73 | 111 | 3.0 | 3.0 | 0.00 | 0.00 | 0.00 | 68 | 1011.0 |
| 20260905192346 | 75 | 310 | 3.0 | 4.0 | 0.00 | 0.00 | 0.00 | 69 | 1011.0 |
| 20260905191845 | 74 | 193 | 1.0 | 2.0 | 0.00 | 0.00 | 0.00 | 66 | 1011.0 |
| 20260905191345 | 73 | 115 | 0.0 | 1.0 | 0.00 | 0.00 | 0.00 | 73 | 1011.3 |
| 20260905190843 | 73 | 110 | 3.0 | 3.0 | 0.00 | 0.00 | 0.00 | 70 | 1010.9 |
| 20260905190337 | 73 | 97 | 1.0 | 2.0 | 0.00 | 0.00 | 0.00 | 70 | 1011.2 |
| 20260905185836 | 72 | 125 | 0.0 | 1.0 | 0.00 | 0.00 | 0.00 | 71 | 1011.3 |
| 20260905185331 | 74 | 106 | 0.0 | 1.0 | 0.00 | 0.00 | 0.00 | 67 | 1011.2 |
| 20260905184830 | 73 | 98 | 3.0 | 3.0 | 0.00 | 0.00 | 0.00 | 66 | 1011.0 |
| 20260905184330 | 74 | 289 | 6.0 | 7.0 | 0.00 | 0.00 | 0.00 | 68 | 1011.2 |
| 20260905183828 | 74 | 283 | 3.0 | 3.0 | 0.00 | 0.00 | 0.00 | 68 | 1011.2 |
| 20260905183324 | 73 | 304 | 5.0 | 7.0 | 0.00 | 0.00 | 0.00 | 70 | 1011.0 |
| 20260905182823 | 73 | 255 | 3.0 | 4.0 | 0.00 | 0.00 | 0.00 | 70 | 1011.1 |
| 20260905182317 | 73 | 306 | 4.0 | 6.0 | 0.00 | 0.00 | 0.00 | 71 | 1011.3 |
| 20260905181813 | 73 | 58 | 2.0 | 2.0 | 0.00 | 0.00 | 0.00 | 69 | 1011.4 |
| 20260905181306 | 72 | 189 | 2.0 | 2.0 | 0.00 | 0.00 | 0.00 | 76 | 1011.2 |
| 20260905180801 | 72 | 143 | 1.0 | 1.0 | 0.00 | 0.00 | 0.00 | 69 | 1011.2 |
| 20260905180255 | 72 | 145 | 2.0 | 3.0 | 0.00 | 0.00 | 0.00 | 69 | 1011.2 |
| 20260905175750 | 72 | 150 | 1.0 | 1.0 | 0.00 | 0.00 | 0.00 | 70 | 1011.2 |
| 20260905175245 | 71 | 168 | 1.0 | 1.0 | 0.00 | 0.00 | 0.00 | 71 | 1011.4 |
| 20260905174740 | 72 | 105 | 2.0 | 3.0 | 0.00 | 0.00 | 0.00 | 71 | 1011.3 |
| 20260905174235 | 72 | 82 | 4.0 | 4.0 | 0.00 | 0.00 | 0.00 | 69 | 1011.1 |
| 20260905173732 | 73 | 259 | 3.0 | 3.0 | 0.00 | 0.00 | 0.00 | 69 | 1011.4 |
| 20260905173227 | 71 | 185 | 0.0 | 1.0 | 0.00 | 0.00 | 0.00 | 73 | 1011.3 |
| 20260905172727 | 71 | 189 | 1.0 | 2.0 | 0.00 | 0.00 | 0.00 | 72 | 1011.5 |
| 20260905172221 | 71 | 201 | 0.0 | 0.0 | 0.00 | 0.00 | 0.00 | 73 | 1011.3 |
| 20260905171717 | 71 | 192 | 0.0 | 1.0 | 0.00 | 0.00 | 0.00 | 72 | 1011.3 |
| 20260905171213 | 71 | 120 | 3.0 | 4.0 | 0.00 | 0.00 | 0.00 | 71 | 1011.2 |
| 20260905170710 | 71 | 136 | 1.0 | 1.0 | 0.00 | 0.00 | 0.00 | 73 | 1011.6 |
| 20260905170210 | 71 | 101 | 1.0 | 1.0 | 0.00 | 0.00 | 0.00 | 73 | 1011.5 |
| 20260905165709 | 71 | 75 | 3.0 | 4.0 | 0.00 | 0.00 | 0.00 | 74 | 1011.5 |
| 20260905165205 | 71 | 225 | 2.0 | 2.0 | 0.00 | 0.00 | 0.00 | 73 | 1011.6 |
| 20260905164659 | 73 | 165 | 1.0 | 1.0 | 0.00 | 0.00 | 0.00 | 69 | 1011.6 |
| 20260905164159 | 75 | 139 | 2.0 | 3.0 | 0.00 | 0.00 | 0.00 | 69 | 1011.4 |
| 20260905163655 | 75 | 139 | 4.0 | 4.0 | 0.00 | 0.00 | 0.00 | 67 | 1011.2 |
| 20260905163152 | 73 | 196 | 2.0 | 4.0 | 0.00 | 0.00 | 0.00 | 73 | 1011.3 |
| 20260905162647 | 71 | 147 | 1.0 | 2.0 | 0.00 | 0.00 | 0.00 | 76 | 1011.3 |
| 20260905162147 | 70 | 61 | 3.0 | 3.0 | 0.00 | 0.00 | 0.00 | 76 | 1011.4 |
| 20260905161641 | 70 | 334 | 2.0 | 3.0 | 0.00 | 0.00 | 0.00 | 77 | 1011.5 |
| 20260905161139 | 70 | 343 | 1.0 | 1.0 | 0.00 | 0.00 | 0.00 | 75 | 1011.8 |
| 20260905160639 | 71 | 140 | 0.0 | 0.0 | 0.00 | 0.00 | 0.00 | 74 | 1011.6 |
| 20260905160133 | 73 | 134 | 0.0 | 0.0 | 0.00 | 0.00 | 0.00 | 72 | 1011.6 |
| 20260905155633 | 71 | 134 | 0.0 | 0.0 | 0.00 | 0.00 | 0.00 | 74 | 1011.8 |
| 20260905155131 | 70 | 83 | 2.0 | 2.0 | 0.00 | 0.00 | 0.00 | 76 | 1011.4 |
| 20260905154626 | 70 | 57 | 2.0 | 4.0 | 0.00 | 0.00 | 0.00 | 74 | 1011.4 |
| 20260905154122 | 70 | 145 | 1.0 | 2.0 | 0.00 | 0.00 | 0.00 | 74 | 1011.5 |
| 20260905153617 | 72 | 98 | 5.0 | 7.0 | 0.00 | 0.00 | 0.00 | 70 | 1011.5 |
| 20260905153113 | 73 | 101 | 0.0 | 1.0 | 0.00 | 0.00 | 0.00 | 75 | 1011.4 |
| 20260905152607 | 72 | 130 | 2.0 | 2.0 | 0.00 | 0.00 | 0.00 | 73 | 1011.7 |
| 20260905152102 | 70 | 127 | 1.0 | 1.0 | 0.00 | 0.00 | 0.00 | 77 | 1011.7 |
| 20260905151557 | 70 | 117 | 1.0 | 2.0 | 0.00 | 0.00 | 0.00 | 76 | 1011.8 |
| 20260905151052 | 69 | 250 | 3.0 | 3.0 | 0.00 | 0.00 | 0.00 | 79 | 1011.8 |
| 20260905150548 | 67 | 102 | 0.0 | 1.0 | 0.00 | 0.00 | 0.00 | 83 | 1011.9 |
| 20260905150045 | 68 | 102 | 0.0 | 0.0 | 0.00 | 0.00 | 0.00 | 81 | 1011.7 |
| 20260905145539 | 68 | 156 | 1.0 | 1.0 | 0.00 | 0.00 | 0.00 | 82 | 1011.7 |
| 20260905145038 | 66 | 183 | 1.0 | 1.0 | 0.00 | 0.00 | 0.00 | 85 | 1011.7 |
| 20260905144533 | 68 | 15 | 2.0 | 2.0 | 0.00 | 0.00 | 0.00 | 85 | 1011.7 |
| 20260905144032 | 67 | 172 | 2.0 | 3.0 | 0.00 | 0.00 | 0.00 | 83 | 1011.7 |
| 20260905143532 | 67 | 163 | 0.0 | 1.0 | 0.00 | 0.00 | 0.00 | 85 | 1011.8 |
| 20260905143027 | 66 | 343 | 3.0 | 3.0 | 0.00 | 0.00 | 0.00 | 86 | 1011.8 |
| 20260905142526 | 66 | 116 | 0.0 | 0.0 | 0.00 | 0.00 | 0.00 | 85 | 1012.0 |
| 20260905142021 | 66 | 90 | 0.0 | 0.0 | 0.00 | 0.00 | 0.00 | 86 | 1011.8 |
| 20260905141515 | 65 | 90 | 3.0 | 3.0 | 0.00 | 0.00 | 0.00 | 87 | 1011.8 |
| 20260905141012 | 65 | 121 | 2.0 | 3.0 | 0.00 | 0.00 | 0.00 | 87 | 1012.0 |
| 20260905140507 | 65 | 145 | 1.0 | 1.0 | 0.00 | 0.00 | 0.00 | 88 | 1011.8 |
| 20260905140006 | 65 | 321 | 0.0 | 0.0 | 0.00 | 0.00 | 0.00 | 89 | 1011.7 |
| 20260905135501 | 65 | 94 | 2.0 | 4.0 | 0.00 | 0.00 | 0.00 | 87 | 1011.8 |
| 20260905134956 | 66 | 176 | 1.0 | 2.0 | 0.00 | 0.00 | 0.00 | 87 | 1011.8 |
| 20260905134455 | 66 | 158 | 1.0 | 1.0 | 0.00 | 0.00 | 0.00 | 87 | 1011.6 |
| 20260905133954 | 66 | 344 | 3.0 | 7.0 | 0.00 | 0.00 | 0.00 | 85 | 1011.7 |
| 20260905133444 | 65 | 323 | 0.0 | 1.0 | 0.00 | 0.00 | 0.00 | 87 | 1011.7 |
| 20260905132943 | 66 | 59 | 0.0 | 0.0 | 0.00 | 0.00 | 0.00 | 86 | 1011.4 |
| 20260905132439 | 66 | 177 | 0.0 | 0.0 | 0.00 | 0.00 | 0.00 | 88 | 1011.5 |
| 20260905131933 | 66 | 152 | 0.0 | 0.0 | 0.00 | 0.00 | 0.00 | 87 | 1011.3 |
| 20260905131430 | 65 | 129 | 0.0 | 0.0 | 0.00 | 0.00 | 0.00 | 88 | 1011.6 |
| 20260905130924 | 65 | 156 | 0.0 | 0.0 | 0.00 | 0.00 | 0.00 | 90 | 1011.8 |
| 20260905130423 | 65 | 130 | 0.0 | 0.0 | 0.00 | 0.00 | 0.00 | 90 | 1011.7 |
| 20260905125918 | 64 | 129 | 0.0 | 0.0 | 0.00 | 0.00 | 0.00 | 92 | 1011.9 |
| 20260905125413 | 64 | 129 | 0.0 | 0.0 | 0.00 | 0.00 | 0.00 | 93 | 1011.9 |
| 20260905124908 | 63 | 300 | 0.0 | 1.0 | 0.00 | 0.00 | 0.00 | 94 | 1011.8 |
| 20260905124405 | 62 | 187 | 0.0 | 0.0 | 0.00 | 0.00 | 0.00 | 96 | 1011.9 |
| 20260905123904 | 61 | 199 | 0.0 | 0.0 | 0.00 | 0.00 | 0.00 | 99 | 1012.0 |
| 20260905123401 | 59 | 199 | 0.0 | 0.0 | 0.00 | 0.00 | 0.00 | 99 | 1011.9 |
| 20260905122856 | 58 | 198 | 0.0 | 0.0 | 0.00 | 0.00 | 0.00 | 99 | 1011.9 |
| 20260905122355 | 57 | 198 | 0.0 | 0.0 | 0.00 | 0.00 | 0.00 | 99 | 1011.9 |
| 20260905121851 | 57 | 198 | 0.0 | 0.0 | 0.00 | 0.00 | 0.00 | 99 | 1011.9 |
| 20260905121347 | 57 | 198 | 0.0 | 0.0 | 0.00 | 0.00 | 0.00 | 99 | 1011.8 |
| 20260905120846 | 56 | 198 | 0.0 | 0.0 | 0.00 | 0.00 | 0.00 | 99 | 1011.7 |
| 20260905120340 | 56 | 198 | 0.0 | 0.0 | 0.00 | 0.00 | 0.00 | 99 | 1011.6 |
| 20260905115836 | 55 | 198 | 0.0 | 0.0 | 0.00 | 0.00 | 0.00 | 99 | 1011.6 |
| 20260905115335 | 55 | 198 | 0.0 | 0.0 | 0.00 | 0.00 | 0.00 | 99 | 1011.7 |
| 20260905114834 | 54 | 198 | 0.0 | 0.0 | 0.00 | 0.00 | 0.00 | 99 | 1011.6 |
| 20260905114334 | 54 | 198 | 0.0 | 0.0 | 0.00 | 0.00 | 0.00 | 99 | 1011.8 |
| 20260905113828 | 53 | 198 | 0.0 | 0.0 | 0.00 | 0.00 | 0.00 | 99 | 1011.5 |
| 20260905113324 | 53 | 198 | 0.0 | 0.0 | 0.00 | 0.00 | 0.00 | 99 | 1011.5 |
| 20260905112819 | 53 | 198 | 0.0 | 0.0 | 0.00 | 0.00 | 0.00 | 99 | 1011.6 |
| 20260905112314 | 52 | 198 | 0.0 | 0.0 | 0.00 | 0.00 | 0.00 | 99 | 1011.8 |
| 20260905111809 | 52 | 198 | 0.0 | 0.0 | 0.00 | 0.00 | 0.00 | 99 | 1011.5 |
| 20260905111303 | 52 | 198 | 0.0 | 0.0 | 0.00 | 0.00 | 0.00 | 99 | 1011.5 |
| 20260905110802 | 52 | 198 | 0.0 | 0.0 | 0.00 | 0.00 | 0.00 | 99 | 1011.3 |
| 20260905110256 | 52 | 198 | 0.0 | 0.0 | 0.00 | 0.00 | 0.00 | 99 | 1011.1 |
| 20260905105752 | 52 | 198 | 0.0 | 0.0 | 0.00 | 0.00 | 0.00 | 99 | 1011.2 |
| 20260905105251 | 52 | 198 | 0.0 | 0.0 | 0.00 | 0.00 | 0.00 | 99 | 1011.0 |
| 20260905104746 | 52 | 155 | 0.0 | 0.0 | 0.00 | 0.00 | 0.00 | 99 | 1011.1 |
| 20260905104242 | 52 | 155 | 0.0 | 0.0 | 0.00 | 0.00 | 0.00 | 99 | 1011.0 |
| 20260905103736 | 52 | 155 | 0.0 | 0.0 | 0.00 | 0.00 | 0.00 | 99 | 1010.6 |
| 20260905103232 | 52 | 155 | 0.0 | 0.0 | 0.00 | 0.00 | 0.00 | 99 | 1010.9 |
| 20260905102727 | 52 | 155 | 0.0 | 0.0 | 0.00 | 0.00 | 0.00 | 99 | 1010.6 |
| 20260905102224 | 52 | 155 | 0.0 | 0.0 | 0.00 | 0.00 | 0.00 | 99 | 1010.9 |
| 20260905101723 | 52 | 155 | 0.0 | 0.0 | 0.00 | 0.00 | 0.00 | 99 | 1010.7 |
| 20260905101221 | 52 | 155 | 0.0 | 0.0 | 0.00 | 0.00 | 0.00 | 99 | 1010.6 |
| 20260905100717 | 52 | 155 | 0.0 | 0.0 | 0.00 | 0.00 | 0.00 | 99 | 1010.6 |
| 20260905100212 | 52 | 155 | 0.0 | 0.0 | 0.00 | 0.00 | 0.00 | 99 | 1010.3 |
| 20260905095712 | 52 | 155 | 0.0 | 0.0 | 0.00 | 0.00 | 0.00 | 99 | 1010.5 |
| 20260905095207 | 52 | 155 | 0.0 | 0.0 | 0.00 | 0.00 | 0.00 | 99 | 1010.4 |
| 20260905094706 | 53 | 155 | 0.0 | 0.0 | 0.00 | 0.00 | 0.00 | 99 | 1010.4 |
| 20260905094201 | 53 | 155 | 0.0 | 0.0 | 0.00 | 0.00 | 0.00 | 99 | 1010.4 |
| 20260905093655 | 53 | 155 | 0.0 | 0.0 | 0.00 | 0.00 | 0.00 | 99 | 1010.3 |
| 20260905093151 | 53 | 155 | 0.0 | 0.0 | 0.00 | 0.00 | 0.00 | 99 | 1010.4 |
| 20260905092646 | 53 | 155 | 0.0 | 0.0 | 0.00 | 0.00 | 0.00 | 99 | 1010.5 |
| 20260905092142 | 53 | 155 | 0.0 | 0.0 | 0.00 | 0.00 | 0.00 | 99 | 1010.5 |
| 20260905091642 | 53 | 155 | 0.0 | 0.0 | 0.00 | 0.00 | 0.00 | 99 | 1010.6 |
| 20260905091142 | 53 | 155 | 0.0 | 0.0 | 0.00 | 0.00 | 0.00 | 99 | 1010.5 |
| 20260905090636 | 53 | 155 | 0.0 | 0.0 | 0.00 | 0.00 | 0.00 | 99 | 1010.6 |
| 20260905090132 | 54 | 155 | 0.0 | 0.0 | 0.00 | 0.00 | 0.00 | 99 | 1010.7 |
| 20260905085631 | 54 | 155 | 0.0 | 0.0 | 0.00 | 0.00 | 0.00 | 99 | 1010.6 |
| 20260905085126 | 54 | 155 | 0.0 | 0.0 | 0.00 | 0.00 | 0.00 | 99 | 1010.5 |
| 20260905084625 | 54 | 155 | 0.0 | 0.0 | 0.00 | 0.00 | 0.00 | 99 | 1010.7 |
| 20260905084120 | 54 | 155 | 0.0 | 0.0 | 0.00 | 0.00 | 0.00 | 99 | 1010.4 |
| 20260905083615 | 54 | 155 | 0.0 | 0.0 | 0.00 | 0.00 | 0.00 | 99 | 1010.9 |
| 20260905083112 | 54 | 155 | 0.0 | 0.0 | 0.00 | 0.00 | 0.00 | 99 | 1010.4 |
| 20260905082607 | 54 | 155 | 0.0 | 0.0 | 0.00 | 0.00 | 0.00 | 99 | 1010.7 |
| 20260905082102 | 53 | 155 | 0.0 | 0.0 | 0.00 | 0.00 | 0.00 | 99 | 1010.9 |
| 20260905081602 | 53 | 155 | 0.0 | 0.0 | 0.00 | 0.00 | 0.00 | 99 | 1010.7 |
| 20260905081056 | 53 | 155 | 0.0 | 0.0 | 0.00 | 0.00 | 0.00 | 99 | 1010.7 |
| 20260905080551 | 53 | 155 | 0.0 | 0.0 | 0.00 | 0.00 | 0.00 | 99 | 1010.9 |
| 20260905080045 | 53 | 155 | 0.0 | 0.0 | 0.00 | 0.00 | 0.00 | 99 | 1010.9 |
| 20260905075538 | 53 | 155 | 0.0 | 0.0 | 0.00 | 0.00 | 0.00 | 99 | 1010.7 |
| 20260905075033 | 53 | 155 | 0.0 | 0.0 | 0.00 | 0.00 | 0.00 | 99 | 1010.9 |
| 20260905074527 | 54 | 155 | 0.0 | 0.0 | 0.00 | 0.00 | 0.00 | 99 | 1010.9 |
| 20260905074023 | 54 | 155 | 0.0 | 0.0 | 0.00 | 0.00 | 0.00 | 99 | 1010.7 |
| 20260905073518 | 54 | 155 | 0.0 | 0.0 | 0.00 | 0.00 | 0.00 | 99 | 1010.9 |
| 20260905073014 | 54 | 155 | 0.0 | 0.0 | 0.00 | 0.00 | 0.00 | 99 | 1010.6 |
| 20260905072513 | 54 | 155 | 0.0 | 0.0 | 0.00 | 0.00 | 0.00 | 99 | 1011.1 |
| 20260905072009 | 54 | 155 | 0.0 | 0.0 | 0.00 | 0.00 | 0.00 | 99 | 1011.1 |
| 20260905071505 | 54 | 155 | 0.0 | 0.0 | 0.00 | 0.00 | 0.00 | 99 | 1011.0 |
| 20260905071000 | 54 | 155 | 0.0 | 0.0 | 0.00 | 0.00 | 0.00 | 99 | 1010.9 |
| 20260905070455 | 54 | 155 | 0.0 | 0.0 | 0.00 | 0.00 | 0.00 | 99 | 1011.1 |
| 20260905065955 | 54 | 155 | 0.0 | 0.0 | 0.00 | 0.00 | 0.00 | 99 | 1010.9 |
| 20260905065454 | 54 | 155 | 0.0 | 0.0 | 0.00 | 0.00 | 0.00 | 99 | 1011.2 |
| 20260905064949 | 54 | 155 | 0.0 | 0.0 | 0.00 | 0.00 | 0.00 | 99 | 1011.1 |
| 20260905064444 | 54 | 155 | 0.0 | 0.0 | 0.00 | 0.00 | 0.00 | 99 | 1011.2 |
| 20260905063938 | 54 | 155 | 0.0 | 0.0 | 0.00 | 0.00 | 0.00 | 99 | 1011.4 |
| 20260905063433 | 54 | 155 | 0.0 | 0.0 | 0.00 | 0.00 | 0.00 | 99 | 1011.4 |
| 20260905062929 | 54 | 155 | 0.0 | 0.0 | 0.00 | 0.00 | 0.00 | 99 | 1011.4 |
| 20260905062423 | 54 | 155 | 0.0 | 0.0 | 0.00 | 0.00 | 0.00 | 99 | 1011.3 |
| 20260905061919 | 54 | 155 | 0.0 | 0.0 | 0.00 | 0.00 | 0.00 | 99 | 1011.4 |
| 20260905061413 | 54 | 155 | 0.0 | 0.0 | 0.00 | 0.00 | 0.00 | 99 | 1011.4 |
| 20260905060912 | 54 | 155 | 0.0 | 0.0 | 0.00 | 0.00 | 0.00 | 99 | 1011.4 |
| 20260905060409 | 54 | 155 | 0.0 | 0.0 | 0.00 | 0.00 | 0.00 | 99 | 1011.4 |
| 20260905055908 | 54 | 155 | 0.0 | 0.0 | 0.00 | 0.00 | 0.00 | 99 | 1011.5 |
| 20260905055403 | 54 | 155 | 0.0 | 0.0 | 0.00 | 0.00 | 0.00 | 99 | 1011.5 |
| 20260905054902 | 54 | 155 | 0.0 | 0.0 | 0.00 | 0.00 | 0.00 | 99 | 1011.9 |
| 20260905054359 | 55 | 155 | 0.0 | 0.0 | 0.00 | 0.00 | 0.00 | 99 | 1011.5 |
| 20260905053858 | 55 | 155 | 0.0 | 0.0 | 0.00 | 0.00 | 0.00 | 99 | 1011.6 |
| 20260905053353 | 55 | 155 | 0.0 | 0.0 | 0.00 | 0.00 | 0.00 | 99 | 1011.3 |
| 20260905052849 | 55 | 155 | 0.0 | 0.0 | 0.00 | 0.00 | 0.00 | 99 | 1011.8 |
| 20260905052348 | 55 | 155 | 0.0 | 0.0 | 0.00 | 0.00 | 0.00 | 99 | 1011.7 |
| 20260905051848 | 55 | 155 | 0.0 | 0.0 | 0.00 | 0.00 | 0.00 | 99 | 1011.7 |
| 20260905051344 | 55 | 155 | 0.0 | 0.0 | 0.00 | 0.00 | 0.00 | 99 | 1012.0 |
| 20260905050841 | 56 | 155 | 0.0 | 0.0 | 0.00 | 0.00 | 0.00 | 99 | 1012.1 |
| 20260905050336 | 56 | 155 | 0.0 | 0.0 | 0.00 | 0.00 | 0.00 | 99 | 1011.9 |
| 20260905045831 | 56 | 155 | 0.0 | 0.0 | 0.00 | 0.00 | 0.00 | 99 | 1011.8 |
| 20260905045326 | 56 | 155 | 0.0 | 0.0 | 0.00 | 0.00 | 0.00 | 99 | 1012.0 |
| 20260905044822 | 56 | 155 | 0.0 | 0.0 | 0.00 | 0.00 | 0.00 | 99 | 1011.7 |
| 20260905044317 | 56 | 155 | 0.0 | 0.0 | 0.00 | 0.00 | 0.00 | 99 | 1012.1 |
| 20260905043815 | 56 | 155 | 0.0 | 0.0 | 0.00 | 0.00 | 0.00 | 99 | 1011.9 |
| 20260905043310 | 56 | 155 | 0.0 | 0.0 | 0.00 | 0.00 | 0.00 | 99 | 1012.0 |
| 20260905042805 | 56 | 155 | 0.0 | 0.0 | 0.00 | 0.00 | 0.00 | 99 | 1012.0 |
| 20260905042307 | 57 | 155 | 0.0 | 0.0 | 0.00 | 0.00 | 0.00 | 99 | 1011.9 |
| 20260905041800 | 57 | 155 | 0.0 | 0.0 | 0.00 | 0.00 | 0.00 | 99 | 1012.2 |
| 20260905041255 | 57 | 155 | 0.0 | 0.0 | 0.00 | 0.00 | 0.00 | 99 | 1011.9 |
| 20260905040750 | 57 | 155 | 0.0 | 0.0 | 0.00 | 0.00 | 0.00 | 99 | 1012.0 |
| 20260905040249 | 57 | 155 | 0.0 | 0.0 | 0.00 | 0.00 | 0.00 | 99 | 1012.0 |
| 20260905035744 | 58 | 155 | 0.0 | 0.0 | 0.00 | 0.36 | 0.36 | 99 | 1012.0 |
| 20260905035240 | 58 | 155 | 0.0 | 0.0 | 0.00 | 0.36 | 0.36 | 99 | 1012.0 |
| 20260905034736 | 58 | 155 | 0.0 | 0.0 | 0.00 | 0.36 | 0.36 | 99 | 1011.8 |
| 20260905034231 | 59 | 155 | 0.0 | 0.0 | 0.00 | 0.36 | 0.36 | 99 | 1011.8 |
| 20260905033730 | 59 | 155 | 0.0 | 0.0 | 0.00 | 0.36 | 0.36 | 99 | 1011.9 |
| 20260905033225 | 59 | 155 | 0.0 | 0.0 | 0.00 | 0.36 | 0.36 | 99 | 1011.8 |
| 20260905032724 | 59 | 155 | 0.0 | 0.0 | 0.00 | 0.36 | 0.36 | 99 | 1011.9 |
| 20260905032220 | 59 | 155 | 0.0 | 0.0 | 0.00 | 0.36 | 0.36 | 99 | 1011.8 |
| 20260905031715 | 59 | 155 | 0.0 | 0.0 | 0.00 | 0.36 | 0.36 | 99 | 1011.7 |
| 20260905031210 | 59 | 155 | 0.0 | 0.0 | 0.00 | 0.36 | 0.36 | 99 | 1011.9 |
| 20260905030706 | 59 | 155 | 0.0 | 0.0 | 0.00 | 0.36 | 0.36 | 99 | 1011.8 |
| 20260905030201 | 59 | 155 | 0.0 | 0.0 | 0.00 | 0.36 | 0.36 | 99 | 1011.6 |
| 20260905025656 | 60 | 155 | 0.0 | 0.0 | 0.00 | 0.36 | 0.36 | 99 | 1011.8 |
| 20260905025151 | 60 | 155 | 0.0 | 0.0 | 0.00 | 0.36 | 0.36 | 99 | 1011.7 |
| 20260905024647 | 60 | 155 | 0.0 | 0.0 | 0.00 | 0.36 | 0.36 | 99 | 1011.7 |
| 20260905024142 | 60 | 155 | 0.0 | 0.0 | 0.00 | 0.36 | 0.36 | 99 | 1011.7 |
| 20260905023637 | 60 | 155 | 0.0 | 0.0 | 0.00 | 0.36 | 0.36 | 99 | 1011.6 |
| 20260905023137 | 60 | 155 | 0.0 | 0.0 | 0.00 | 0.36 | 0.36 | 99 | 1011.7 |
| 20260905022636 | 60 | 155 | 0.0 | 0.0 | 0.00 | 0.36 | 0.36 | 99 | 1011.8 |
| 20260905022131 | 60 | 155 | 0.0 | 0.0 | 0.00 | 0.36 | 0.36 | 99 | 1012.0 |
| 20260905021626 | 60 | 155 | 0.0 | 0.0 | 0.00 | 0.36 | 0.36 | 99 | 1012.0 |
| 20260905021121 | 61 | 155 | 0.0 | 0.0 | 0.00 | 0.36 | 0.36 | 99 | 1012.0 |
| 20260905020621 | 61 | 155 | 0.0 | 0.0 | 0.00 | 0.36 | 0.36 | 99 | 1011.9 |
| 20260905020117 | 62 | 155 | 0.0 | 0.0 | 0.00 | 0.36 | 0.36 | 99 | 1012.0 |
| 20260905015615 | 62 | 155 | 0.0 | 0.0 | 0.00 | 0.36 | 0.36 | 99 | 1012.1 |
| 20260905015109 | 62 | 155 | 0.0 | 0.0 | 0.00 | 0.36 | 0.36 | 99 | 1012.3 |
| 20260905014603 | 62 | 155 | 0.0 | 0.0 | 0.00 | 0.36 | 0.36 | 99 | 1012.1 |
| 20260905014059 | 62 | 155 | 0.0 | 0.0 | 0.00 | 0.36 | 0.36 | 99 | 1012.3 |
| 20260905013555 | 62 | 155 | 0.0 | 0.0 | 0.00 | 0.36 | 0.36 | 99 | 1012.2 |
| 20260905013051 | 62 | 155 | 0.0 | 0.0 | 0.00 | 0.36 | 0.36 | 99 | 1012.0 |
| 20260905012550 | 62 | 155 | 0.0 | 0.0 | 0.00 | 0.36 | 0.36 | 99 | 1012.1 |
| 20260905012048 | 62 | 155 | 0.0 | 0.0 | 0.00 | 0.36 | 0.36 | 99 | 1012.0 |
| 20260905011543 | 62 | 155 | 0.0 | 0.0 | 0.00 | 0.36 | 0.36 | 99 | 1012.2 |
| 20260905011038 | 62 | 155 | 0.0 | 0.0 | 0.00 | 0.36 | 0.36 | 99 | 1012.2 |
| 20260905010533 | 62 | 155 | 0.0 | 0.0 | 0.00 | 0.36 | 0.36 | 99 | 1011.9 |
| 20260905010030 | 62 | 155 | 0.0 | 0.0 | 0.00 | 0.36 | 0.36 | 99 | 1011.8 |
| 20260905005525 | 62 | 155 | 0.0 | 0.0 | 0.00 | 0.36 | 0.36 | 99 | 1012.2 |
| 20260905005020 | 62 | 155 | 0.0 | 0.0 | 0.00 | 0.36 | 0.36 | 99 | 1011.8 |
| 20260905004515 | 62 | 155 | 0.0 | 0.0 | 0.00 | 0.36 | 0.36 | 99 | 1011.8 |
| 20260905004010 | 62 | 155 | 0.0 | 0.0 | 0.00 | 0.36 | 0.36 | 99 | 1011.8 |
| 20260905003506 | 62 | 155 | 0.0 | 0.0 | 0.00 | 0.36 | 0.36 | 99 | 1011.9 |
| 20260905003001 | 62 | 155 | 0.0 | 0.0 | 0.00 | 0.36 | 0.36 | 99 | 1011.7 |
| 20260905002455 | 62 | 155 | 0.0 | 0.0 | 0.00 | 0.36 | 0.36 | 99 | 1012.0 |
| 20260905001950 | 62 | 155 | 0.0 | 0.0 | 0.00 | 0.36 | 0.36 | 99 | 1012.0 |
| 20260905001444 | 63 | 155 | 0.0 | 0.0 | 0.00 | 0.36 | 0.36 | 99 | 1011.7 |
| 20260905000939 | 63 | 155 | 0.0 | 0.0 | 0.00 | 0.36 | 0.36 | 99 | 1011.7 |
| 20260905000435 | 63 | 155 | 0.0 | 0.0 | 0.00 | 0.36 | 0.36 | 99 | 1012.0 |
| 20260904235930 | 63 | 155 | 0.0 | 0.0 | 0.00 | 0.36 | 0.36 | 99 | 1011.9 |
| 20260904235426 | 63 | 155 | 0.0 | 0.0 | 0.00 | 0.36 | 0.36 | 99 | 1011.6 |
| 20260904234925 | 64 | 155 | 0.0 | 0.0 | 0.00 | 0.36 | 0.36 | 99 | 1011.7 |
| 20260904234420 | 64 | 155 | 0.0 | 0.0 | 0.00 | 0.36 | 0.36 | 98 | 1011.8 |
| 20260904233916 | 64 | 155 | 0.0 | 0.0 | 0.00 | 0.36 | 0.36 | 98 | 1011.8 |
| 20260904233411 | 64 | 155 | 0.0 | 0.0 | 0.00 | 0.36 | 0.36 | 98 | 1011.5 |
| 20260904232908 | 65 | 155 | 0.0 | 0.0 | 0.00 | 0.36 | 0.36 | 97 | 1011.7 |
| 20260904232404 | 64 | 155 | 0.0 | 0.0 | 0.00 | 0.36 | 0.36 | 97 | 1011.8 |
| 20260904231900 | 65 | 155 | 0.0 | 0.0 | 0.00 | 0.36 | 0.36 | 97 | 1011.5 |
| 20260904231355 | 65 | 155 | 0.0 | 0.0 | 0.00 | 0.36 | 0.36 | 96 | 1011.6 |
| 20260904230850 | 66 | 155 | 0.0 | 0.0 | 0.00 | 0.36 | 0.36 | 96 | 1011.4 |
| 20260904230349 | 66 | 155 | 0.0 | 0.0 | 0.00 | 0.36 | 0.36 | 95 | 1011.5 |
| 20260904225844 | 66 | 155 | 0.0 | 0.0 | 0.00 | 0.36 | 0.36 | 93 | 1011.4 |
| 20260904225342 | 67 | 155 | 0.0 | 0.0 | 0.00 | 0.36 | 0.36 | 93 | 1011.4 |
| 20260904224842 | 67 | 155 | 0.0 | 0.0 | 0.00 | 0.36 | 0.36 | 90 | 1011.2 |
| 20260904224337 | 68 | 155 | 0.0 | 0.0 | 0.00 | 0.36 | 0.36 | 90 | 1011.3 |
| 20260904223837 | 69 | 155 | 0.0 | 0.0 | 0.00 | 0.36 | 0.36 | 86 | 1011.2 |
| 20260904223331 | 70 | 155 | 0.0 | 0.0 | 0.00 | 0.36 | 0.36 | 83 | 1011.3 |
| 20260904222828 | 71 | 155 | 0.0 | 0.0 | 0.00 | 0.36 | 0.36 | 82 | 1011.3 |